This is the latest recevied weather packets stored in our database for station/object KC5DAQ-28. If no packets are shown the sender has not sent any weather packets the latest 1 day(s).
| Time | Temp. | Humidity | Pressure | Rain* | Wind** | Luminosity | Snow |
|---|---|---|---|---|---|---|---|
| 1778016004 | 28.33° C | 76% | 1001.3 hPa | 0 mm | - | 345 W/m² | - |
| 1778015885 | 28.33° C | 76% | 1001.4 hPa | 0 mm | - | 345 W/m² | - |
| 1778015584 | 28.33° C | 75% | 1001.4 hPa | 0 mm | - | 278 W/m² | - |
| 1778015522 | 28.33° C | 75% | 1001.4 hPa | 0 mm | - | 306 W/m² | - |
| 1778015223 | 28.33° C | 76% | 1001.5 hPa | 0 mm | - | 380 W/m² | - |
| 1778015104 | 28.33° C | 75% | 1001.5 hPa | 0 mm | - | 380 W/m² | - |
| 1778014984 | 28.33° C | 75% | 1001.6 hPa | 0 mm | - | 380 W/m² | - |
| 1778014863 | 28.33° C | 75% | 1001.6 hPa | 0 mm | - | 399 W/m² | - |
| 1778014624 | 28.33° C | 76% | 1001.5 hPa | 0 mm | - | 426 W/m² | - |
| 1778014324 | 28.33° C | 76% | 1001.6 hPa | 0 mm | - | 455 W/m² | - |
| 1778014202 | 28.33° C | 76% | 1001.7 hPa | 0 mm | - | 364 W/m² | - |
| 1778014144 | 28.33° C | 76% | 1001.8 hPa | 0 mm | - | 251 W/m² | - |
| 1778014085 | 28.33° C | 75% | 1001.7 hPa | 0 mm | - | 251 W/m² | - |
| 1778013543 | 28.33° C | 76% | 1001.9 hPa | 0 mm | - | 368 W/m² | - |
| 1778013364 | 28.33° C | 75% | 1001.9 hPa | 0 mm | - | 368 W/m² | - |
| 1778013064 | 28.33° C | 75% | 1002 hPa | 0 mm | - | 403 W/m² | - |
| 1778012162 | 28.33° C | 75% | 1002.2 hPa | 0 mm | - | 480 W/m² | - |
| 1778011563 | 28.33° C | 75% | 1002.4 hPa | 0 mm | - | 519 W/m² | - |
| 1778011264 | 28.33° C | 76% | 1002.4 hPa | 0 mm | - | 587 W/m² | - |
| 1778010844 | 28.33° C | 76% | 1002.4 hPa | 0 mm | - | 480 W/m² | - |
| 1778010484 | 27.78° C | 76% | 1002.4 hPa | 0 mm | - | 626 W/m² | - |
| 1778010423 | 27.78° C | 77% | 1002.5 hPa | 0 mm | - | 584 W/m² | - |
| 1778009643 | 27.78° C | 77% | 1002.6 hPa | 0 mm | - | 338 W/m² | - |
| 1778009284 | 27.78° C | 77% | 1002.6 hPa | 0 mm | - | 375 W/m² | - |
| 1778008682 | 28.33° C | 76% | 1002.8 hPa | 0 mm | - | 491 W/m² | - |
* Rain latest hour (hover to see other rain measurements)
** Current wind speed in m/s (hover to see current wind gust speed)